Year,Month,Day,Hour,Minute,Value (Times are PST for insolation in W/m^2)
2016,07,10,00,00,0.00
2016,07,10,00,01,0.00
2016,07,10,00,02,0.00
2016,07,10,00,03,0.00
2016,07,10,00,04,0.00
2016,07,10,00,05,0.00
2016,07,10,00,06,0.00
2016,07,10,00,07,0.00
2016,07,10,00,08,0.00
2016,07,10,00,09,0.00
2016,07,10,00,10,0.00
2016,07,10,00,11,0.00
2016,07,10,00,12,0.00
2016,07,10,00,13,0.00
2016,07,10,00,14,0.00
2016,07,10,00,15,0.00
2016,07,10,00,16,0.00
2016,07,10,00,17,0.00
2016,07,10,00,18,0.00
2016,07,10,00,19,0.00
2016,07,10,00,20,0.00
2016,07,10,00,21,0.00
2016,07,10,00,22,0.00
2016,07,10,00,23,0.00
2016,07,10,00,24,0.00
2016,07,10,00,25,0.00
2016,07,10,00,26,0.00
2016,07,10,00,27,0.00
2016,07,10,00,28,0.00
2016,07,10,00,29,0.00
2016,07,10,00,30,0.00
2016,07,10,00,31,0.00
2016,07,10,00,32,0.00
2016,07,10,00,33,0.00
2016,07,10,00,34,0.00
2016,07,10,00,35,0.00
2016,07,10,00,36,0.00
2016,07,10,00,37,0.00
2016,07,10,00,38,0.00
2016,07,10,00,39,0.00
2016,07,10,00,40,0.00
2016,07,10,00,41,0.00
2016,07,10,00,42,0.00
2016,07,10,00,43,0.00
2016,07,10,00,44,0.00
2016,07,10,00,45,0.00
2016,07,10,00,46,0.00
2016,07,10,00,47,0.00
2016,07,10,00,48,0.00
2016,07,10,00,49,0.00
2016,07,10,00,50,0.00
2016,07,10,00,51,0.00
2016,07,10,00,52,0.00
2016,07,10,00,53,0.00
2016,07,10,00,54,0.00
2016,07,10,00,55,0.00
2016,07,10,00,56,0.00
2016,07,10,00,57,0.00
2016,07,10,00,58,0.00
2016,07,10,00,59,0.00
2016,07,10,01,00,0.00
2016,07,10,01,01,0.00
2016,07,10,01,02,0.00
2016,07,10,01,03,0.00
2016,07,10,01,04,0.00
2016,07,10,01,05,0.00
2016,07,10,01,06,0.00
2016,07,10,01,07,0.00
2016,07,10,01,08,0.00
2016,07,10,01,09,0.00
2016,07,10,01,10,0.00
2016,07,10,01,11,0.00
2016,07,10,01,12,0.00
2016,07,10,01,13,0.00
2016,07,10,01,14,0.00
2016,07,10,01,15,0.00
2016,07,10,01,16,0.00
2016,07,10,01,17,0.00
2016,07,10,01,18,0.00
2016,07,10,01,19,0.00
2016,07,10,01,20,0.00
2016,07,10,01,21,0.00
2016,07,10,01,22,0.00
2016,07,10,01,23,0.00
2016,07,10,01,24,0.00
2016,07,10,01,25,0.00
2016,07,10,01,26,0.00
2016,07,10,01,27,0.00
2016,07,10,01,28,0.00
2016,07,10,01,29,0.00
2016,07,10,01,30,0.00
2016,07,10,01,31,0.00
2016,07,10,01,32,0.00
2016,07,10,01,33,0.00
2016,07,10,01,34,0.00
2016,07,10,01,35,0.00
2016,07,10,01,36,0.00
2016,07,10,01,37,0.00
2016,07,10,01,38,0.00
2016,07,10,01,39,0.00
2016,07,10,01,40,0.00
2016,07,10,01,41,0.00
2016,07,10,01,42,0.00
2016,07,10,01,43,0.00
2016,07,10,01,44,0.00
2016,07,10,01,45,0.00
2016,07,10,01,46,0.00
2016,07,10,01,47,0.00
2016,07,10,01,48,0.00
2016,07,10,01,49,0.00
2016,07,10,01,50,0.00
2016,07,10,01,51,0.00
2016,07,10,01,52,0.00
2016,07,10,01,53,0.00
2016,07,10,01,54,0.00
2016,07,10,01,55,0.00
2016,07,10,01,56,0.00
2016,07,10,01,57,0.00
2016,07,10,01,58,0.00
2016,07,10,01,59,0.00
2016,07,10,02,00,0.00
2016,07,10,02,01,0.00
2016,07,10,02,02,0.00
2016,07,10,02,03,0.00
2016,07,10,02,04,0.00
2016,07,10,02,05,0.00
2016,07,10,02,06,0.00
2016,07,10,02,07,0.00
2016,07,10,02,08,0.00
2016,07,10,02,09,0.00
2016,07,10,02,10,0.00
2016,07,10,02,11,0.00
2016,07,10,02,12,0.00
2016,07,10,02,13,0.00
2016,07,10,02,14,0.00
2016,07,10,02,15,0.00
2016,07,10,02,16,0.00
2016,07,10,02,17,0.00
2016,07,10,02,18,0.00
2016,07,10,02,19,0.00
2016,07,10,02,20,0.00
2016,07,10,02,21,0.00
2016,07,10,02,22,0.00
2016,07,10,02,23,0.00
2016,07,10,02,24,0.00
2016,07,10,02,25,0.00
2016,07,10,02,26,0.00
2016,07,10,02,27,0.00
2016,07,10,02,28,0.00
2016,07,10,02,29,0.00
2016,07,10,02,30,0.00
2016,07,10,02,31,0.00
2016,07,10,02,32,0.00
2016,07,10,02,33,0.00
2016,07,10,02,34,0.00
2016,07,10,02,35,0.00
2016,07,10,02,36,0.00
2016,07,10,02,37,0.00
2016,07,10,02,38,0.00
2016,07,10,02,39,0.00
2016,07,10,02,40,0.00
2016,07,10,02,41,0.00
2016,07,10,02,42,0.00
2016,07,10,02,43,0.00
2016,07,10,02,44,0.00
2016,07,10,02,45,0.00
2016,07,10,02,46,0.00
2016,07,10,02,47,0.00
2016,07,10,02,48,0.00
2016,07,10,02,49,0.00
2016,07,10,02,50,0.00
2016,07,10,02,51,0.00
2016,07,10,02,52,0.00
2016,07,10,02,53,0.00
2016,07,10,02,54,0.00
2016,07,10,02,55,0.00
2016,07,10,02,56,0.00
2016,07,10,02,57,0.00
2016,07,10,02,58,0.00
2016,07,10,02,59,0.00
2016,07,10,03,00,0.00
2016,07,10,03,01,0.00
2016,07,10,03,02,0.00
2016,07,10,03,03,0.00
2016,07,10,03,04,0.00
2016,07,10,03,05,0.00
2016,07,10,03,06,0.00
2016,07,10,03,07,0.00
2016,07,10,03,08,0.00
2016,07,10,03,09,0.00
2016,07,10,03,10,0.00
2016,07,10,03,11,0.00
2016,07,10,03,12,0.00
2016,07,10,03,13,0.00
2016,07,10,03,14,0.00
2016,07,10,03,15,0.00
2016,07,10,03,16,0.00
2016,07,10,03,17,0.00
2016,07,10,03,18,0.00
2016,07,10,03,19,0.00
2016,07,10,03,20,0.00
2016,07,10,03,21,0.00
2016,07,10,03,22,0.00
2016,07,10,03,23,0.00
2016,07,10,03,24,0.00
2016,07,10,03,25,0.00
2016,07,10,03,26,0.00
2016,07,10,03,27,0.00
2016,07,10,03,28,0.00
2016,07,10,03,29,0.00
2016,07,10,03,30,0.00
2016,07,10,03,31,0.00
2016,07,10,03,32,0.00
2016,07,10,03,33,0.00
2016,07,10,03,34,0.00
2016,07,10,03,35,0.00
2016,07,10,03,36,0.00
2016,07,10,03,37,0.00
2016,07,10,03,38,0.00
2016,07,10,03,39,0.00
2016,07,10,03,40,0.00
2016,07,10,03,41,0.00
2016,07,10,03,42,0.00
2016,07,10,03,43,0.00
2016,07,10,03,44,0.00
2016,07,10,03,45,0.00
2016,07,10,03,46,0.00
2016,07,10,03,47,0.00
2016,07,10,03,48,0.00
2016,07,10,03,49,0.00
2016,07,10,03,50,0.00
2016,07,10,03,51,0.00
2016,07,10,03,52,0.00
2016,07,10,03,53,0.00
2016,07,10,03,54,0.00
2016,07,10,03,55,0.00
2016,07,10,03,56,0.00
2016,07,10,03,57,0.00
2016,07,10,03,58,0.00
2016,07,10,03,59,0.00
2016,07,10,04,00,0.00
2016,07,10,04,01,0.00
2016,07,10,04,02,0.00
2016,07,10,04,03,0.00
2016,07,10,04,04,0.00
2016,07,10,04,05,0.00
2016,07,10,04,06,0.00
2016,07,10,04,07,0.00
2016,07,10,04,08,0.00
2016,07,10,04,09,0.00
2016,07,10,04,10,0.00
2016,07,10,04,11,0.00
2016,07,10,04,12,0.00
2016,07,10,04,13,0.00
2016,07,10,04,14,0.00
2016,07,10,04,15,0.00
2016,07,10,04,16,0.00
2016,07,10,04,17,0.00
2016,07,10,04,18,0.00
2016,07,10,04,19,0.00
2016,07,10,04,20,0.00
2016,07,10,04,21,0.00
2016,07,10,04,22,0.00
2016,07,10,04,23,0.00
2016,07,10,04,24,0.00
2016,07,10,04,25,0.00
2016,07,10,04,26,0.00
2016,07,10,04,27,0.00
2016,07,10,04,28,0.00
2016,07,10,04,29,0.00
2016,07,10,04,30,0.00
2016,07,10,04,31,0.00
2016,07,10,04,32,0.00
2016,07,10,04,33,0.00
2016,07,10,04,34,0.00
2016,07,10,04,35,0.00
2016,07,10,04,36,0.00
2016,07,10,04,37,0.00
2016,07,10,04,38,0.00
2016,07,10,04,39,0.00
2016,07,10,04,40,0.00
2016,07,10,04,41,0.00
2016,07,10,04,42,0.00
2016,07,10,04,43,0.00
2016,07,10,04,44,0.00
2016,07,10,04,45,0.00
2016,07,10,04,46,0.00
2016,07,10,04,47,0.00
2016,07,10,04,48,0.00
2016,07,10,04,49,0.00
2016,07,10,04,50,0.00
2016,07,10,04,51,0.00
2016,07,10,04,52,0.00
2016,07,10,04,53,0.00
2016,07,10,04,54,0.00
2016,07,10,04,55,0.00
2016,07,10,04,56,0.00
2016,07,10,04,57,0.00
2016,07,10,04,58,0.00
2016,07,10,04,59,0.00
2016,07,10,05,00,0.00
2016,07,10,05,01,0.00
2016,07,10,05,02,0.00
2016,07,10,05,03,0.00
2016,07,10,05,04,0.00
2016,07,10,05,05,0.00
2016,07,10,05,06,0.00
2016,07,10,05,07,0.00
2016,07,10,05,08,0.00
2016,07,10,05,09,0.00
2016,07,10,05,10,0.00
2016,07,10,05,11,0.00
2016,07,10,05,12,0.00
2016,07,10,05,13,0.00
2016,07,10,05,14,0.00
2016,07,10,05,15,0.00
2016,07,10,05,16,0.00
2016,07,10,05,17,0.00
2016,07,10,05,18,0.00
2016,07,10,05,19,0.00
2016,07,10,05,20,0.00
2016,07,10,05,21,0.00
2016,07,10,05,22,0.00
2016,07,10,05,23,0.00
2016,07,10,05,24,0.00
2016,07,10,05,25,0.00
2016,07,10,05,26,0.00
2016,07,10,05,27,0.00
2016,07,10,05,28,0.00
2016,07,10,05,29,0.00
2016,07,10,05,30,0.00
2016,07,10,05,31,0.00
2016,07,10,05,32,0.00
2016,07,10,05,33,0.00
2016,07,10,05,34,0.00
2016,07,10,05,35,5.00
2016,07,10,05,36,5.00
2016,07,10,05,37,5.00
2016,07,10,05,38,6.00
2016,07,10,05,39,7.00
2016,07,10,05,40,7.00
2016,07,10,05,41,7.00
2016,07,10,05,42,8.70
2016,07,10,05,43,9.00
2016,07,10,05,44,9.00
2016,07,10,05,45,9.00
2016,07,10,05,46,9.00
2016,07,10,05,47,9.90
2016,07,10,05,48,11.00
2016,07,10,05,49,11.00
2016,07,10,05,50,11.80
2016,07,10,05,51,12.00
2016,07,10,05,52,14.00
2016,07,10,05,53,14.00
2016,07,10,05,54,14.70
2016,07,10,05,55,16.00
2016,07,10,05,56,16.00
2016,07,10,05,57,16.00
2016,07,10,05,58,17.50
2016,07,10,05,59,18.80
2016,07,10,06,00,19.10
2016,07,10,06,01,21.00
2016,07,10,06,02,21.00
2016,07,10,06,03,21.00
2016,07,10,06,04,21.00
2016,07,10,06,05,22.20
2016,07,10,06,06,23.00
2016,07,10,06,07,23.00
2016,07,10,06,08,23.00
2016,07,10,06,09,24.90
2016,07,10,06,10,25.70
2016,07,10,06,11,30.90
2016,07,10,06,12,33.90
2016,07,10,06,13,37.00
2016,07,10,06,14,36.50
2016,07,10,06,15,28.20
2016,07,10,06,16,27.60
2016,07,10,06,17,28.00
2016,07,10,06,18,25.60
2016,07,10,06,19,23.00
2016,07,10,06,20,23.00
2016,07,10,06,21,23.00
2016,07,10,06,22,24.10
2016,07,10,06,23,25.60
2016,07,10,06,24,26.00
2016,07,10,06,25,27.70
2016,07,10,06,26,26.20
2016,07,10,06,27,28.00
2016,07,10,06,28,29.10
2016,07,10,06,29,32.30
2016,07,10,06,30,33.00
2016,07,10,06,31,33.00
2016,07,10,06,32,33.00
2016,07,10,06,33,33.00
2016,07,10,06,34,34.80
2016,07,10,06,35,35.00
2016,07,10,06,36,35.00
2016,07,10,06,37,35.60
2016,07,10,06,38,37.80
2016,07,10,06,39,39.00
2016,07,10,06,40,39.60
2016,07,10,06,41,41.50
2016,07,10,06,42,43.60
2016,07,10,06,43,48.50
2016,07,10,06,44,54.80
2016,07,10,06,45,63.80
2016,07,10,06,46,71.50
2016,07,10,06,47,80.00
2016,07,10,06,48,85.10
2016,07,10,06,49,90.90
2016,07,10,06,50,93.00
2016,07,10,06,51,120.00
2016,07,10,06,52,127.90
2016,07,10,06,53,170.20
2016,07,10,06,54,155.80
2016,07,10,06,55,139.00
2016,07,10,06,56,139.00
2016,07,10,06,57,86.40
2016,07,10,06,58,54.00
2016,07,10,06,59,54.00
2016,07,10,07,00,55.60
2016,07,10,07,01,82.50
2016,07,10,07,02,74.00
2016,07,10,07,03,82.00
2016,07,10,07,04,142.80
2016,07,10,07,05,201.70
2016,07,10,07,06,207.60
2016,07,10,07,07,207.00
2016,07,10,07,08,137.30
2016,07,10,07,09,111.70
2016,07,10,07,10,112.40
2016,07,10,07,11,115.30
2016,07,10,07,12,108.20
2016,07,10,07,13,107.90
2016,07,10,07,14,111.80
2016,07,10,07,15,121.70
2016,07,10,07,16,144.40
2016,07,10,07,17,171.60
2016,07,10,07,18,179.90
2016,07,10,07,19,205.20
2016,07,10,07,20,176.70
2016,07,10,07,21,194.20
2016,07,10,07,22,214.00
2016,07,10,07,23,188.00
2016,07,10,07,24,174.00
2016,07,10,07,25,128.10
2016,07,10,07,26,124.80
2016,07,10,07,27,123.30
2016,07,10,07,28,114.00
2016,07,10,07,29,119.10
2016,07,10,07,30,128.00
2016,07,10,07,31,149.00
2016,07,10,07,32,192.30
2016,07,10,07,33,181.50
2016,07,10,07,34,153.20
2016,07,10,07,35,167.50
2016,07,10,07,36,125.80
2016,07,10,07,37,122.30
2016,07,10,07,38,136.10
2016,07,10,07,39,152.00
2016,07,10,07,40,153.00
2016,07,10,07,41,153.00
2016,07,10,07,42,157.00
2016,07,10,07,43,156.60
2016,07,10,07,44,165.20
2016,07,10,07,45,153.30
2016,07,10,07,46,146.60
2016,07,10,07,47,142.80
2016,07,10,07,48,132.20
2016,07,10,07,49,125.00
2016,07,10,07,50,102.50
2016,07,10,07,51,89.10
2016,07,10,07,52,84.20
2016,07,10,07,53,84.00
2016,07,10,07,54,85.80
2016,07,10,07,55,90.60
2016,07,10,07,56,89.00
2016,07,10,07,57,88.00
2016,07,10,07,58,85.20
2016,07,10,07,59,77.60
2016,07,10,08,00,70.30
2016,07,10,08,01,65.00
2016,07,10,08,02,63.60
2016,07,10,08,03,58.70
2016,07,10,08,04,59.20
2016,07,10,08,05,55.10
2016,07,10,08,06,51.80
2016,07,10,08,07,52.50
2016,07,10,08,08,53.00
2016,07,10,08,09,53.00
2016,07,10,08,10,57.80
2016,07,10,08,11,79.20
2016,07,10,08,12,87.50
2016,07,10,08,13,85.30
2016,07,10,08,14,81.00
2016,07,10,08,15,79.60
2016,07,10,08,16,79.00
2016,07,10,08,17,77.20
2016,07,10,08,18,84.40
2016,07,10,08,19,96.00
2016,07,10,08,20,110.30
2016,07,10,08,21,127.00
2016,07,10,08,22,141.50
2016,07,10,08,23,151.10
2016,07,10,08,24,149.40
2016,07,10,08,25,132.70
2016,07,10,08,26,116.70
2016,07,10,08,27,118.70
2016,07,10,08,28,136.00
2016,07,10,08,29,143.40
2016,07,10,08,30,144.00
2016,07,10,08,31,141.40
2016,07,10,08,32,139.60
2016,07,10,08,33,140.50
2016,07,10,08,34,147.90
2016,07,10,08,35,155.30
2016,07,10,08,36,158.90
2016,07,10,08,37,163.00
2016,07,10,08,38,165.00
2016,07,10,08,39,166.00
2016,07,10,08,40,171.20
2016,07,10,08,41,181.70
2016,07,10,08,42,191.50
2016,07,10,08,43,193.00
2016,07,10,08,44,232.30
2016,07,10,08,45,249.80
2016,07,10,08,46,272.70
2016,07,10,08,47,297.10
2016,07,10,08,48,313.30
2016,07,10,08,49,307.60
2016,07,10,08,50,284.80
2016,07,10,08,51,276.40
2016,07,10,08,52,264.90
2016,07,10,08,53,251.00
2016,07,10,08,54,251.00
2016,07,10,08,55,251.00
2016,07,10,08,56,251.00
2016,07,10,08,57,251.00
2016,07,10,08,58,398.10
2016,07,10,08,59,466.00
2016,07,10,09,00,358.00
2016,07,10,09,01,311.50
2016,07,10,09,02,311.80
2016,07,10,09,03,279.70
2016,07,10,09,04,225.70
2016,07,10,09,05,191.00
2016,07,10,09,06,170.00
2016,07,10,09,07,168.00
2016,07,10,09,08,182.60
2016,07,10,09,09,212.60
2016,07,10,09,10,229.50
2016,07,10,09,11,223.80
2016,07,10,09,12,223.40
2016,07,10,09,13,231.20
2016,07,10,09,14,245.60
2016,07,10,09,15,270.30
2016,07,10,09,16,291.00
2016,07,10,09,17,309.40
2016,07,10,09,18,316.80
2016,07,10,09,19,338.70
2016,07,10,09,20,355.00
2016,07,10,09,21,355.00
2016,07,10,09,22,355.00
2016,07,10,09,23,355.00
2016,07,10,09,24,355.00
2016,07,10,09,25,355.00
2016,07,10,09,26,355.00
2016,07,10,09,27,355.00
2016,07,10,09,28,355.00
2016,07,10,09,29,385.60
2016,07,10,09,30,459.00
2016,07,10,09,31,416.30
2016,07,10,09,32,419.30
2016,07,10,09,33,448.00
2016,07,10,09,34,372.40
2016,07,10,09,35,377.00
2016,07,10,09,36,378.00
2016,07,10,09,37,425.40
2016,07,10,09,38,502.40
2016,07,10,09,39,452.00
2016,07,10,09,40,442.10
2016,07,10,09,41,434.00
2016,07,10,09,42,553.60
2016,07,10,09,43,510.00
2016,07,10,09,44,506.40
2016,07,10,09,45,555.00
2016,07,10,09,46,555.00
2016,07,10,09,47,620.60
2016,07,10,09,48,732.10
2016,07,10,09,49,723.40
2016,07,10,09,50,674.40
2016,07,10,09,51,638.70
2016,07,10,09,52,635.00
2016,07,10,09,53,635.00
2016,07,10,09,54,635.00
2016,07,10,09,55,635.00
2016,07,10,09,56,635.00
2016,07,10,09,57,635.00
2016,07,10,09,58,670.10
2016,07,10,09,59,689.00
2016,07,10,10,00,535.20
2016,07,10,10,01,516.80
2016,07,10,10,02,693.00
2016,07,10,10,03,693.00
2016,07,10,10,04,683.50
2016,07,10,10,05,668.00
2016,07,10,10,06,729.10
2016,07,10,10,07,775.00
2016,07,10,10,08,775.00
2016,07,10,10,09,795.70
2016,07,10,10,10,801.40
2016,07,10,10,11,784.80
2016,07,10,10,12,765.40
2016,07,10,10,13,749.80
2016,07,10,10,14,757.70
2016,07,10,10,15,770.30
2016,07,10,10,16,764.00
2016,07,10,10,17,781.20
2016,07,10,10,18,788.60
2016,07,10,10,19,809.40
2016,07,10,10,20,841.90
2016,07,10,10,21,853.00
2016,07,10,10,22,853.00
2016,07,10,10,23,853.00
2016,07,10,10,24,853.00
2016,07,10,10,25,868.40
2016,07,10,10,26,872.00
2016,07,10,10,27,872.00
2016,07,10,10,28,872.00
2016,07,10,10,29,812.70
2016,07,10,10,30,694.00
2016,07,10,10,31,694.00
2016,07,10,10,32,669.30
2016,07,10,10,33,639.90
2016,07,10,10,34,633.00
2016,07,10,10,35,642.80
2016,07,10,10,36,839.20
2016,07,10,10,37,843.40
2016,07,10,10,38,831.80
2016,07,10,10,39,822.80
2016,07,10,10,40,780.10
2016,07,10,10,41,758.00
2016,07,10,10,42,750.50
2016,07,10,10,43,741.00
2016,07,10,10,44,742.30
2016,07,10,10,45,745.00
2016,07,10,10,46,744.70
2016,07,10,10,47,742.30
2016,07,10,10,48,740.00
2016,07,10,10,49,738.80
2016,07,10,10,50,737.30
2016,07,10,10,51,743.70
2016,07,10,10,52,745.20
2016,07,10,10,53,748.00
2016,07,10,10,54,741.00
2016,07,10,10,55,739.50
2016,07,10,10,56,742.90
2016,07,10,10,57,744.00
2016,07,10,10,58,744.00
2016,07,10,10,59,744.80
2016,07,10,11,00,748.40
2016,07,10,11,01,749.10
2016,07,10,11,02,752.00
2016,07,10,11,03,752.00
2016,07,10,11,04,752.70
2016,07,10,11,05,755.00
2016,07,10,11,06,757.20
2016,07,10,11,07,760.20
2016,07,10,11,08,762.60
2016,07,10,11,09,764.90
2016,07,10,11,10,766.30
2016,07,10,11,11,768.00
2016,07,10,11,12,768.00
2016,07,10,11,13,769.80
2016,07,10,11,14,772.50
2016,07,10,11,15,774.30
2016,07,10,11,16,775.00
2016,07,10,11,17,775.00
2016,07,10,11,18,779.80
2016,07,10,11,19,780.00
2016,07,10,11,20,781.00
2016,07,10,11,21,784.00
2016,07,10,11,22,784.00
2016,07,10,11,23,786.20
2016,07,10,11,24,788.70
2016,07,10,11,25,790.60
2016,07,10,11,26,792.80
2016,07,10,11,27,796.00
2016,07,10,11,28,796.40
2016,07,10,11,29,798.00
2016,07,10,11,30,798.00
2016,07,10,11,31,799.00
2016,07,10,11,32,801.30
2016,07,10,11,33,802.70
2016,07,10,11,34,803.00
2016,07,10,11,35,806.70
2016,07,10,11,36,809.00
2016,07,10,11,37,809.00
2016,07,10,11,38,809.00
2016,07,10,11,39,809.00
2016,07,10,11,40,809.00
2016,07,10,11,41,815.50
2016,07,10,11,42,820.50
2016,07,10,11,43,822.70
2016,07,10,11,44,822.70
2016,07,10,11,45,816.40
2016,07,10,11,46,819.00
2016,07,10,11,47,821.80
2016,07,10,11,48,826.00
2016,07,10,11,49,826.00
2016,07,10,11,50,829.30
2016,07,10,11,51,834.20
2016,07,10,11,52,837.70
2016,07,10,11,53,837.30
2016,07,10,11,54,840.40
2016,07,10,11,55,840.80
2016,07,10,11,56,835.10
2016,07,10,11,57,831.00
2016,07,10,11,58,833.60
2016,07,10,11,59,836.50
2016,07,10,12,00,837.00
2016,07,10,12,01,837.90
2016,07,10,12,02,837.00
2016,07,10,12,03,837.20
2016,07,10,12,04,838.70
2016,07,10,12,05,840.00
2016,07,10,12,06,840.00
2016,07,10,12,07,840.00
2016,07,10,12,08,838.50
2016,07,10,12,09,839.70
2016,07,10,12,10,838.00
2016,07,10,12,11,838.40
2016,07,10,12,12,840.60
2016,07,10,12,13,841.20
2016,07,10,12,14,842.00
2016,07,10,12,15,844.00
2016,07,10,12,16,848.90
2016,07,10,12,17,851.00
2016,07,10,12,18,851.00
2016,07,10,12,19,853.20
2016,07,10,12,20,854.00
2016,07,10,12,21,854.60
2016,07,10,12,22,856.00
2016,07,10,12,23,857.10
2016,07,10,12,24,859.30
2016,07,10,12,25,860.00
2016,07,10,12,26,860.00
2016,07,10,12,27,861.00
2016,07,10,12,28,861.40
2016,07,10,12,29,863.00
2016,07,10,12,30,863.00
2016,07,10,12,31,860.80
2016,07,10,12,32,855.80
2016,07,10,12,33,850.80
2016,07,10,12,34,843.60
2016,07,10,12,35,845.60
2016,07,10,12,36,847.60
2016,07,10,12,37,853.60
2016,07,10,12,38,858.10
2016,07,10,12,39,865.00
2016,07,10,12,40,870.00
2016,07,10,12,41,873.20
2016,07,10,12,42,876.30
2016,07,10,12,43,878.70
2016,07,10,12,44,879.10
2016,07,10,12,45,881.20
2016,07,10,12,46,882.00
2016,07,10,12,47,884.10
2016,07,10,12,48,888.50
2016,07,10,12,49,891.20
2016,07,10,12,50,893.00
2016,07,10,12,51,901.20
2016,07,10,12,52,910.30
2016,07,10,12,53,914.30
2016,07,10,12,54,918.00
2016,07,10,12,55,913.40
2016,07,10,12,56,916.10
2016,07,10,12,57,923.00
2016,07,10,12,58,923.00
2016,07,10,12,59,924.40
2016,07,10,13,00,925.00
2016,07,10,13,01,872.20
2016,07,10,13,02,839.20
2016,07,10,13,03,816.20
2016,07,10,13,04,796.60
2016,07,10,13,05,804.70
2016,07,10,13,06,812.00
2016,07,10,13,07,815.30
2016,07,10,13,08,825.80
2016,07,10,13,09,841.70
2016,07,10,13,10,831.70
2016,07,10,13,11,793.30
2016,07,10,13,12,785.40
2016,07,10,13,13,798.10
2016,07,10,13,14,831.30
2016,07,10,13,15,842.90
2016,07,10,13,16,838.40
2016,07,10,13,17,845.10
2016,07,10,13,18,847.00
2016,07,10,13,19,856.70
2016,07,10,13,20,860.90
2016,07,10,13,21,854.70
2016,07,10,13,22,863.60
2016,07,10,13,23,849.30
2016,07,10,13,24,833.60
2016,07,10,13,25,847.80
2016,07,10,13,26,840.60
2016,07,10,13,27,838.00
2016,07,10,13,28,760.60
2016,07,10,13,29,338.20
2016,07,10,13,30,358.60
2016,07,10,13,31,306.00
2016,07,10,13,32,306.00
2016,07,10,13,33,296.90
2016,07,10,13,34,305.00
2016,07,10,13,35,298.20
2016,07,10,13,36,297.00
2016,07,10,13,37,305.20
2016,07,10,13,38,338.00
2016,07,10,13,39,338.00
2016,07,10,13,40,665.20
2016,07,10,13,41,1052.00
2016,07,10,13,42,1044.00
2016,07,10,13,43,1044.00
2016,07,10,13,44,1044.00
2016,07,10,13,45,1044.00
2016,07,10,13,46,931.10
2016,07,10,13,47,545.20
2016,07,10,13,48,499.00
2016,07,10,13,49,499.00
2016,07,10,13,50,432.00
2016,07,10,13,51,346.50
2016,07,10,13,52,330.00
2016,07,10,13,53,312.00
2016,07,10,13,54,343.20
2016,07,10,13,55,313.90
2016,07,10,13,56,319.90
2016,07,10,13,57,334.60
2016,07,10,13,58,316.60
2016,07,10,13,59,331.20
2016,07,10,14,00,277.00
2016,07,10,14,01,260.00
2016,07,10,14,02,329.10
2016,07,10,14,03,951.00
2016,07,10,14,04,951.00
2016,07,10,14,05,951.00
2016,07,10,14,06,951.00
2016,07,10,14,07,930.00
2016,07,10,14,08,919.50
2016,07,10,14,09,928.70
2016,07,10,14,10,945.50
2016,07,10,14,11,959.00
2016,07,10,14,12,993.00
2016,07,10,14,13,950.70
2016,07,10,14,14,872.00
2016,07,10,14,15,872.00
2016,07,10,14,16,872.00
2016,07,10,14,17,872.00
2016,07,10,14,18,872.00
2016,07,10,14,19,872.00
2016,07,10,14,20,872.00
2016,07,10,14,21,872.00
2016,07,10,14,22,872.00
2016,07,10,14,23,911.00
2016,07,10,14,24,935.40
2016,07,10,14,25,923.00
2016,07,10,14,26,915.80
2016,07,10,14,27,946.60
2016,07,10,14,28,937.00
2016,07,10,14,29,937.00
2016,07,10,14,30,780.50
2016,07,10,14,31,490.00
2016,07,10,14,32,490.00
2016,07,10,14,33,490.00
2016,07,10,14,34,478.60
2016,07,10,14,35,475.00
2016,07,10,14,36,475.00
2016,07,10,14,37,475.00
2016,07,10,14,38,475.00
2016,07,10,14,39,619.50
2016,07,10,14,40,888.00
2016,07,10,14,41,888.00
2016,07,10,14,42,873.30
2016,07,10,14,43,858.20
2016,07,10,14,44,849.70
2016,07,10,14,45,847.60
2016,07,10,14,46,852.20
2016,07,10,14,47,849.00
2016,07,10,14,48,849.80
2016,07,10,14,49,854.50
2016,07,10,14,50,859.90
2016,07,10,14,51,864.00
2016,07,10,14,52,867.40
2016,07,10,14,53,872.00
2016,07,10,14,54,872.60
2016,07,10,14,55,858.00
2016,07,10,14,56,858.00
2016,07,10,14,57,858.00
2016,07,10,14,58,858.00
2016,07,10,14,59,858.00
2016,07,10,15,00,858.00
2016,07,10,15,01,858.00
2016,07,10,15,02,858.00
2016,07,10,15,03,858.00
2016,07,10,15,04,869.10
2016,07,10,15,05,891.70
2016,07,10,15,06,886.00
2016,07,10,15,07,886.00
2016,07,10,15,08,438.90
2016,07,10,15,09,260.00
2016,07,10,15,10,260.00
2016,07,10,15,11,285.70
2016,07,10,15,12,517.00
2016,07,10,15,13,517.00
2016,07,10,15,14,517.00
2016,07,10,15,15,517.00
2016,07,10,15,16,459.40
2016,07,10,15,17,357.00
2016,07,10,15,18,336.00
2016,07,10,15,19,360.50
2016,07,10,15,20,389.50
2016,07,10,15,21,356.50
2016,07,10,15,22,334.80
2016,07,10,15,23,331.70
2016,07,10,15,24,329.80
2016,07,10,15,25,341.30
2016,07,10,15,26,357.30
2016,07,10,15,27,444.10
2016,07,10,15,28,385.00
2016,07,10,15,29,385.00
2016,07,10,15,30,385.00
2016,07,10,15,31,361.00
2016,07,10,15,32,330.50
2016,07,10,15,33,333.20
2016,07,10,15,34,341.70
2016,07,10,15,35,345.00
2016,07,10,15,36,346.70
2016,07,10,15,37,378.40
2016,07,10,15,38,365.40
2016,07,10,15,39,357.30
2016,07,10,15,40,400.30
2016,07,10,15,41,434.50
2016,07,10,15,42,387.80
2016,07,10,15,43,361.00
2016,07,10,15,44,367.60
2016,07,10,15,45,384.30
2016,07,10,15,46,400.40
2016,07,10,15,47,378.70
2016,07,10,15,48,361.10
2016,07,10,15,49,343.70
2016,07,10,15,50,320.60
2016,07,10,15,51,310.70
2016,07,10,15,52,308.20
2016,07,10,15,53,310.90
2016,07,10,15,54,333.60
2016,07,10,15,55,357.20
2016,07,10,15,56,364.00
2016,07,10,15,57,358.90
2016,07,10,15,58,353.60
2016,07,10,15,59,332.20
2016,07,10,16,00,305.80
2016,07,10,16,01,283.90
2016,07,10,16,02,265.00
2016,07,10,16,03,261.30
2016,07,10,16,04,236.50
2016,07,10,16,05,224.80
2016,07,10,16,06,214.50
2016,07,10,16,07,207.10
2016,07,10,16,08,198.10
2016,07,10,16,09,195.00
2016,07,10,16,10,180.50
2016,07,10,16,11,171.30
2016,07,10,16,12,164.30
2016,07,10,16,13,160.60
2016,07,10,16,14,158.00
2016,07,10,16,15,158.00
2016,07,10,16,16,158.00
2016,07,10,16,17,158.00
2016,07,10,16,18,158.00
2016,07,10,16,19,160.00
2016,07,10,16,20,163.10
2016,07,10,16,21,169.00
2016,07,10,16,22,173.70
2016,07,10,16,23,186.10
2016,07,10,16,24,196.60
2016,07,10,16,25,209.70
2016,07,10,16,26,222.00
2016,07,10,16,27,232.80
2016,07,10,16,28,241.50
2016,07,10,16,29,246.40
2016,07,10,16,30,248.00
2016,07,10,16,31,248.80
2016,07,10,16,32,251.50
2016,07,10,16,33,253.00
2016,07,10,16,34,253.00
2016,07,10,16,35,251.40
2016,07,10,16,36,249.90
2016,07,10,16,37,246.00
2016,07,10,16,38,247.00
2016,07,10,16,39,251.00
2016,07,10,16,40,260.20
2016,07,10,16,41,294.40
2016,07,10,16,42,299.40
2016,07,10,16,43,289.10
2016,07,10,16,44,293.10
2016,07,10,16,45,296.90
2016,07,10,16,46,296.50
2016,07,10,16,47,292.80
2016,07,10,16,48,287.50
2016,07,10,16,49,279.70
2016,07,10,16,50,273.80
2016,07,10,16,51,271.30
2016,07,10,16,52,283.20
2016,07,10,16,53,287.00
2016,07,10,16,54,455.00
2016,07,10,16,55,420.90
2016,07,10,16,56,274.30
2016,07,10,16,57,270.10
2016,07,10,16,58,268.00
2016,07,10,16,59,265.70
2016,07,10,17,00,265.00
2016,07,10,17,01,268.20
2016,07,10,17,02,277.80
2016,07,10,17,03,292.30
2016,07,10,17,04,289.30
2016,07,10,17,05,266.50
2016,07,10,17,06,258.00
2016,07,10,17,07,258.00
2016,07,10,17,08,265.30